Location: Newark
(19.4108°N, 99.1922°W)
Time: 05:27:01
(UTC+00:00)

Hubble Space Telescope - Visible Passes

Search period start: 25 January 2020 00:00
Search period end: 04 February 2020 00:00
Orbit: 536 x 540 km, 28.5° (Epoch: 24 January)

Date Brightness Start Highest point End Pass type
(mag) Time Alt. Az. Time Alt. Az. Time Alt. Az.
25 Jan 2.2 12:45:35 10° SW 12:49:25 38° SSE 12:53:15 10° E visible
26 Jan 3.8 10:57:22 10° SSE 10:57:53 10° SSE 10:58:25 10° SE visible
26 Jan 1.6 12:34:47 10° SW 12:38:46 51° SSE 12:42:47 10° ENE visible
27 Jan 3.7 10:48:17 13° SE 10:48:17 13° SE 10:49:28 10° ESE visible
27 Jan 1.0 12:24:04 10° WSW 12:28:09 70° SSE 12:32:15 10° ENE visible
28 Jan 3.9 10:39:03 12° ESE 10:39:03 12° ESE 10:39:33 10° ESE visible
28 Jan 0.7 12:14:26 17° WSW 12:17:32 88° NNW 12:21:40 10° ENE visible
29 Jan 0.7 12:05:01 30° W 12:06:57 69° NNW 12:11:03 10° ENE visible
30 Jan 0.9 11:55:28 43° WNW 11:56:22 54° NNW 12:00:24 10° ENE visible
31 Jan 1.2 11:45:47 43° NNW 11:45:48 43° NNW 11:49:45 10° NE visible
01 Feb 1.8 11:35:59 33° N 11:35:59 33° N 11:39:04 10° NE visible
02 Feb 2.4 11:26:07 25° NNE 11:26:07 25° NNE 11:28:25 10° NE visible
03 Feb 2.9 11:16:11 19° NNE 11:16:11 19° NNE 11:17:45 10° NE visible
